SL-8 R/B, 23190

Orbit data source: Space-Track

SL-8 R/B, 23190 is space debris in LEO originally from a launch on Tue, 02 Aug 1994 UTC launched from the Plesetsk Missile And Space Complex (PKMTR). Debris objects in space refer to the collection of defunct objects orbiting the Earth. Examples of debris include non-operational satellites, rocket bodies, and fragments generated from explosions, collisions, or faulty payload assembly.

Loading next visibility...
Identifier
23190, 1994-045B
Orbit
LEO
Last TLE update
1 day ago
Origin
Manufacturer
Polyot
Mission
Spacecraft
Bus & Motor
S3, Unknown motor
Mass
1,434 kg wet, 1,434 kg dry
Launch date (UTC)
1994-08-02 (31 years ago)
Launch vehicle
Unknown
Launch site
Plesetsk Missile And Space Complex (PKMTR)
Object type
Payload
Rocket body
Debris
Shape & HBR
Cyl, 6.57 m
Radar Cross Section
14.646 m², Large (>1 m²)

Expand to show TLE details & history

TLE from 1 day ago
0 SL-8 R/B
1 23190U 94045B   25189.66718176  .00000006  00000-0  29866-4 0  9995
2 23190  74.0292 264.2953 0020017 306.9226  53.0059 13.74343173551290
Epoch: 2025-07-08T16:00Z
TLE epoch observation values (Epoch: 2025-07-08T16:00:44.504Z)
Latitude
-0.00002°
Longitude
97.25098°
Altitude
977.705 km
Speed
7.367 km/s
True Right ascension
17h 37m 10s
True Declination
0° 00' 00"
Sunlit
Object was in full shadow at epoch
Visualization orbit readout
Latitude
65.1266°
Longitude
-122.36161°
Altitude
1,009.1 km
Speed
7.346 km/s
Apparent Right ascension
19h 37m 32s
Apparent Declination
42° 26' 39"
Sunlit
Object is in daylight
Visualization observer readout
Local Sidereal Time
05:11:07
Azimuth
333.886° NNW
Elevation
-1.22°
Doppler factor
1
Orbital elements
Apogee altitude
996.445 km
Perigee altitude
966.981 km
Semi-major axis
7,359.85 km
Eccentricity
0.002
Inclination
74.0292°
RAAN
264.2953°
Arg. of periapsis
306.9226°
True anomaly
Unknown
Mean anomaly
53.0059°
Eccentric anomaly
Unknown
Mean motion
3.43748 °/min
Orbital period
104.73 mins
BSTAR
0.000029866
Loading maneuver chart data...
Loading SW <> Apogee altitude chart data...
Loading historical data...
Loading historical data...
Loading historical data...
Loading historical data...
Loading historical data...
Loading historical data...
Loading historical data...
Other satellites on launch #45 in the year 1994 (1994-08-02 UTC)

SL-8 R/B Visibility forecast

Observer location: undefined°, undefined°

Span
Click to sort rows by Start time (UTC) header in descending order
Start Az.
Max El. time (UTC)
Max El. Az.
Max El.
End time (UTC)
End Az.
10 mins2025-07-09 17:04:03.048Z323.116° NNW2025-07-09 17:09:03.048Z259.564° W33.244°2025-07-09 17:14:03.048Z195.375° SSW
7 mins2025-07-10 04:50:03.048Z133.046° SE2025-07-10 04:53:03.048Z97.496° ESE21.398°2025-07-10 04:57:03.048Z52.531° ENE
10 mins2025-07-10 06:35:03.048Z222.184° SW2025-07-10 06:39:03.048Z278.592° WNW38.526°2025-07-10 06:45:03.048Z8.467° NNE
10 mins2025-07-10 15:46:03.048Z352.098° N2025-07-10 15:51:03.048Z87.767° E40.934°2025-07-10 15:56:03.048Z146.709° SSE
|